FW3611 Weather Reports


Display with metric or nautical units.
time (UTC)temp
F
wind
direction
speed
MPH
gust
MPH
rain 1hr
in
rain 24hr
in
rain mn
in
humidity
%
barometer
mb
20260901164323 87 68 4.0 7.0 0.00 0.00 0.00 68 1019.4
20260901163321 88 66 5.0 11.0 0.00 0.00 0.00 67 1019.5
20260901162819 88 37 5.0 11.0 0.00 0.00 0.00 68 1019.6
20260901162316 88 6 4.0 11.0 0.00 0.00 0.00 67 1019.5
20260901161817 87 48 4.0 11.0 0.00 0.00 0.00 70 1019.6
20260901161317 88 48 4.0 11.0 0.00 0.00 0.00 68 1019.7
20260901160820 88 37 3.0 10.0 0.00 0.00 0.00 68 1019.8
20260901160319 87 25 4.0 9.0 0.00 0.00 0.00 70 1019.8
20260901155817 88 356 4.0 9.0 0.00 0.00 0.00 72 1019.8
20260901155317 87 50 3.0 8.0 0.00 0.00 0.00 72 1019.7
20260901154315 87 56 5.0 10.0 0.00 0.00 0.00 72 1019.9
20260901153813 87 62 4.0 10.0 0.00 0.00 0.00 75 1019.8
20260901153315 86 28 4.0 9.0 0.00 0.00 0.00 74 1019.8
20260901152813 86 2 5.0 10.0 0.00 0.00 0.00 74 1019.9
20260901152312 85 19 5.0 10.0 0.00 0.00 0.00 73 1020.0
20260901151807 86 45 5.0 10.0 0.00 0.00 0.00 75 1020.0
20260901151307 85 52 4.0 10.0 0.00 0.00 0.00 76 1020.1
20260901150803 85 15 4.0 8.0 0.00 0.00 0.00 78 1020.0
20260901150302 85 338 4.0 8.0 0.00 0.00 0.00 78 1020.1
20260901145306 84 73 4.0 10.0 0.00 0.00 0.00 78 1020.1
20260901144802 84 28 4.0 9.0 0.00 0.00 0.00 80 1020.0
20260901144302 84 33 5.0 10.0 0.00 0.00 0.00 80 1020.1
20260901143801 84 40 5.0 10.0 0.00 0.00 0.00 79 1020.1
20260901142801 83 346 4.0 11.0 0.00 0.00 0.00 82 1020.0
20260901142301 83 346 4.0 9.0 0.00 0.00 0.00 84 1019.7
20260901141802 82 346 5.0 9.0 0.00 0.00 0.00 85 1019.7
20260901141301 81 29 4.0 8.0 0.00 0.00 0.00 87 1019.7
20260901140805 81 20 4.0 8.0 0.00 0.00 0.00 87 1019.7
20260901140306 81 13 5.0 8.0 0.00 0.00 0.00 88 1019.7
20260901134759 81 34 3.0 6.0 0.00 0.00 0.00 90 1019.9
20260901134255 80 39 3.0 5.0 0.00 0.00 0.00 92 1019.8
20260901133755 80 41 3.0 6.0 0.00 0.00 0.00 92 1019.8
20260901133255 80 35 3.0 7.0 0.00 0.00 0.00 94 1019.7
20260901132756 79 29 3.0 7.0 0.00 0.00 0.00 94 1019.7
20260901131755 78 45 2.0 5.0 0.00 0.00 0.00 96 1019.6
20260901131258 78 45 2.0 4.0 0.00 0.00 0.00 96 1019.6
20260901130253 77 45 2.0 4.0 0.00 0.00 0.00 96 1019.6
20260901125754 77 153 1.0 3.0 0.00 0.00 0.00 96 1019.6
20260901125251 77 189 1.0 3.0 0.00 0.00 0.00 96 1019.6
20260901124749 77 189 1.0 3.0 0.00 0.00 0.00 96 1019.6
20260901124247 77 189 1.0 3.0 0.00 0.00 0.00 96 1019.6
20260901123749 76 189 1.0 3.0 0.00 0.00 0.00 97 1019.6
20260901123251 76 189 1.0 3.0 0.00 0.00 0.00 96 1019.6
20260901122747 76 189 1.0 3.0 0.00 0.00 0.00 96 1019.6
20260901122247 76 189 1.0 3.0 0.00 0.00 0.00 96 1019.6
20260901121749 75 189 1.0 3.0 0.00 0.00 0.00 96 1019.6
20260901121247 75 189 1.0 3.0 0.00 0.00 0.00 96 1019.6
20260901120749 75 189 1.0 3.0 0.00 0.00 0.00 96 1019.4
20260901115738 74 189 0.0 0.0 0.00 0.00 0.00 96 1019.3
20260901115234 74 189 0.0 0.0 0.00 0.00 0.00 96 1019.2
20260901114735 74 189 0.0 0.0 0.00 0.00 0.00 96 1019.2
20260901114235 74 189 0.0 0.0 0.00 0.00 0.00 96 1019.1
20260901113736 73 189 0.0 0.0 0.00 0.00 0.00 96 1019.0
20260901113236 73 189 0.0 0.0 0.00 0.00 0.00 96 1019.0
20260901112735 73 189 0.0 0.0 0.00 0.00 0.00 96 1018.9
20260901112239 73 189 0.0 0.0 0.00 0.00 0.00 96 1018.8
20260901111735 73 189 0.0 0.0 0.00 0.00 0.00 96 1018.8
20260901111235 73 189 0.0 0.0 0.00 0.00 0.00 96 1018.8
20260901110734 73 189 0.0 0.0 0.00 0.00 0.00 96 1018.7
20260901110235 73 189 0.0 0.0 0.00 0.00 0.00 96 1018.5
20260901105236 73 189 0.0 0.0 0.00 0.00 0.00 96 1018.5
20260901104734 73 189 0.0 0.0 0.00 0.00 0.00 96 1018.5
20260901104235 73 189 0.0 0.0 0.00 0.00 0.00 96 1018.4
20260901103734 73 189 0.0 0.0 0.00 0.00 0.00 96 1018.5
20260901103234 73 189 0.0 0.0 0.00 0.00 0.00 96 1018.5
20260901102734 73 189 0.0 0.0 0.00 0.00 0.00 96 1018.3
20260901102236 73 189 0.0 0.0 0.00 0.00 0.00 95 1018.3
20260901101735 73 189 0.0 0.0 0.00 0.00 0.00 95 1018.4
20260901101235 73 189 0.0 0.0 0.00 0.00 0.00 95 1018.3
20260901100738 74 189 0.0 0.0 0.00 0.00 0.00 95 1018.3
20260901100234 74 189 0.0 0.0 0.00 0.00 0.00 95 1018.2
20260901095732 74 189 0.0 0.0 0.00 0.00 0.00 95 1018.2
20260901095229 74 189 0.0 0.0 0.00 0.00 0.00 95 1018.2
20260901094727 74 189 0.0 0.0 0.00 0.00 0.00 95 1018.2
20260901094219 74 189 0.0 0.0 0.00 0.00 0.00 95 1018.1
20260901093714 74 189 0.0 0.0 0.00 0.00 0.00 95 1018.2
20260901093221 74 189 0.0 0.0 0.00 0.00 0.00 95 1018.2
20260901092710 74 189 0.0 0.0 0.00 0.00 0.00 95 1018.2
20260901091707 74 189 0.0 0.0 0.00 0.00 0.00 96 1018.2
20260901091202 73 189 0.0 0.0 0.00 0.00 0.00 95 1018.2
20260901090707 74 189 0.0 0.0 0.00 0.00 0.00 95 1018.1
20260901090204 74 189 0.0 0.0 0.00 0.00 0.00 95 1018.2
20260901085703 73 189 0.0 0.0 0.00 0.00 0.00 95 1018.2
20260901084205 74 189 0.0 0.0 0.00 0.00 0.00 95 1018.1
20260901083710 74 189 0.0 0.0 0.00 0.00 0.00 95 1018.2
20260901082706 74 189 0.0 0.0 0.00 0.00 0.00 95 1018.3
20260901082207 74 189 0.0 0.0 0.00 0.00 0.00 95 1018.3
20260901081704 74 189 0.0 0.0 0.00 0.00 0.00 95 1018.2
20260901081203 74 189 0.0 0.0 0.00 0.00 0.00 95 1018.2
20260901080702 74 189 0.0 0.0 0.00 0.00 0.00 95 1018.1
20260901080159 74 189 0.0 0.0 0.00 0.00 0.00 95 1018.1
20260901075200 74 189 0.0 0.0 0.00 0.00 0.00 95 1018.1
20260901074707 74 189 0.0 0.0 0.00 0.00 0.00 95 1018.1
20260901073655 74 189 0.0 0.0 0.00 0.00 0.00 95 1018.2
20260901073157 74 189 0.0 0.0 0.00 0.00 0.00 95 1018.3
20260901072654 74 189 0.0 0.0 0.00 0.00 0.00 94 1018.3
20260901072156 74 189 0.0 0.0 0.00 0.01 0.00 94 1018.2
20260901071655 74 189 0.0 0.0 0.00 0.01 0.00 94 1018.2
20260901071156 74 189 0.0 0.0 0.00 0.01 0.00 94 1018.1
20260901070651 74 189 0.0 0.0 0.00 0.01 0.00 94 1018.1
20260901070150 74 189 0.0 0.0 0.00 0.01 0.00 94 1018.2
20260901065649 74 189 0.0 0.0 0.00 0.01 0.00 94 1018.3
20260901065140 74 189 0.0 0.0 0.00 0.01 0.00 94 1018.4
20260901063638 75 189 0.0 0.0 0.00 0.01 0.00 94 1018.4
20260901063136 75 189 0.0 0.0 0.00 0.01 0.00 94 1018.4
20260901062135 75 189 0.0 0.0 0.00 0.01 0.00 94 1018.4
20260901061633 75 189 0.0 0.0 0.00 0.01 0.00 94 1018.4
20260901061141 75 189 0.0 0.0 0.00 0.01 0.00 94 1018.4
20260901060639 75 189 0.0 0.0 0.00 0.01 0.00 94 1018.5
20260901054627 75 189 0.0 0.0 0.00 0.01 0.00 94 1018.7
20260901054124 75 189 0.0 0.0 0.00 0.01 0.00 94 1018.8
20260901053622 75 189 0.0 0.0 0.00 0.01 0.00 93 1018.9
20260901053120 76 189 0.0 0.0 0.00 0.01 0.00 93 1018.9
20260901052618 76 189 0.0 0.0 0.00 0.01 0.00 93 1019.0
20260901052116 76 189 0.0 0.0 0.00 0.01 0.00 93 1019.0
20260901051616 76 189 0.0 0.0 0.00 0.01 0.00 93 1019.1
20260901051117 76 189 0.0 0.0 0.00 0.01 0.00 93 1019.1
20260901050614 76 189 0.0 0.0 0.00 0.01 0.00 93 1019.1
20260901050113 76 189 0.0 0.0 0.00 0.01 0.00 93 1019.1
20260901045612 76 189 0.0 0.0 0.00 0.01 0.00 93 1019.1
20260901045108 76 189 0.0 0.0 0.00 0.01 0.00 93 1019.1
20260901043607 77 189 0.0 0.0 0.00 0.01 0.00 93 1019.2
20260901042608 77 189 0.0 0.0 0.00 0.01 0.00 92 1019.2
20260901042100 77 189 0.0 0.0 0.00 0.01 0.00 92 1019.2
20260901041554 77 189 0.0 0.0 0.00 0.01 0.00 92 1019.3
20260901041049 77 189 0.0 0.0 0.00 0.01 0.00 92 1019.3
20260901040548 77 189 0.0 0.0 0.00 0.01 0.00 91 1019.3
20260901040045 78 189 0.0 0.0 0.00 0.01 0.00 91 1019.3
20260901035545 78 189 0.0 0.0 0.00 0.01 0.01 91 1019.3
20260901034545 78 189 0.0 0.0 0.00 0.01 0.01 91 1019.3
20260901034046 78 189 0.0 0.0 0.00 0.01 0.01 91 1019.3
20260901033540 78 189 0.0 0.0 0.00 0.01 0.01 91 1019.3
20260901033039 78 189 0.0 0.0 0.00 0.01 0.01 90 1019.2
20260901032541 78 189 0.0 0.0 0.00 0.01 0.01 90 1019.3
20260901032038 78 189 0.0 0.0 0.00 0.01 0.01 90 1019.3
20260901031538 78 189 0.0 0.0 0.00 0.01 0.01 90 1019.3
20260901030530 79 189 0.0 0.0 0.00 0.01 0.01 89 1019.4
20260901030029 79 189 0.0 0.0 0.00 0.01 0.01 89 1019.4
20260901025530 79 189 0.0 1.0 0.00 0.01 0.01 89 1019.4
20260901024520 79 189 0.0 2.0 0.00 0.01 0.01 89 1019.4
20260901024014 79 189 0.0 2.0 0.00 0.01 0.01 89 1019.4
20260901023516 79 189 0.0 2.0 0.00 0.01 0.01 89 1019.4
20260901023019 79 189 0.0 1.0 0.00 0.01 0.01 88 1019.5
20260901022516 80 189 0.0 1.0 0.00 0.01 0.01 88 1019.5
20260901022015 80 189 0.0 1.0 0.00 0.01 0.01 88 1019.4
20260901021514 80 189 0.0 1.0 0.00 0.01 0.01 88 1019.4
20260901020516 80 189 0.0 2.0 0.00 0.01 0.01 88 1019.4
20260901020013 80 189 0.0 1.0 0.00 0.01 0.01 88 1019.2
20260901015002 80 189 0.0 1.0 0.00 0.01 0.01 88 1019.0
20260901014503 80 189 0.0 1.0 0.00 0.01 0.01 87 1019.0
20260901014002 80 189 0.0 0.0 0.00 0.01 0.01 87 1018.9
20260901013505 80 189 0.0 0.0 0.00 0.01 0.01 87 1018.8
20260901013001 80 189 0.0 0.0 0.00 0.01 0.01 87 1018.7
20260901011504 81 189 0.0 1.0 0.00 0.01 0.01 86 1018.5
20260901010502 81 189 0.0 1.0 0.00 0.01 0.01 85 1018.5
20260901010001 81 189 0.0 1.0 0.00 0.01 0.01 85 1018.4
20260901005458 82 189 0.0 2.0 0.00 0.01 0.01 84 1018.4
20260901004959 82 189 0.0 2.0 0.00 0.01 0.01 84 1018.3
20260901004454 82 189 0.0 1.0 0.00 0.01 0.01 83 1018.3
20260901003954 82 189 0.0 2.0 0.00 0.01 0.01 83 1018.2
20260901003452 82 189 0.0 2.0 0.00 0.01 0.01 82 1018.2
20260901002445 83 189 1.0 5.0 0.00 0.01 0.01 82 1018.2
20260901001947 83 189 0.0 3.0 0.00 0.02 0.01 82 1018.1
20260901000944 83 189 0.0 1.0 0.00 0.02 0.01 81 1018.0
20260901000443 83 189 0.0 3.0 0.00 0.02 0.01 81 1018.0
20260831235939 83 189 1.0 3.0 0.00 0.02 0.01 81 1018.0
20260831235439 84 190 1.0 3.0 0.00 0.02 0.01 81 1018.0
20260831234938 84 190 1.0 3.0 0.00 0.03 0.01 81 1017.9
20260831234443 84 190 1.0 3.0 0.00 0.03 0.01 81 1017.9
20260831233937 85 190 1.0 3.0 0.00 0.03 0.01 81 1017.8
20260831233438 85 191 1.0 3.0 0.00 0.04 0.01 81 1017.9
20260831232935 85 191 1.0 3.0 0.00 0.04 0.01 80 1017.8
20260831232435 85 191 1.0 3.0 0.00 0.04 0.01 80 1017.8
20260831230432 87 191 1.0 4.0 0.00 0.05 0.01 76 1017.6
20260831225930 87 191 1.0 4.0 0.00 0.05 0.01 76 1017.7
20260831225429 87 191 1.0 3.0 0.00 0.05 0.01 75 1017.6
20260831224929 88 191 2.0 6.0 0.00 0.06 0.01 74 1017.7
20260831224423 88 191 2.0 6.0 0.00 0.06 0.01 74 1017.7
20260831223922 88 127 2.0 5.0 0.00 0.06 0.01 74 1017.7
20260831223422 88 75 2.0 5.0 0.00 0.06 0.01 74 1017.6
20260831222421 87 169 2.0 4.0 0.00 0.07 0.01 75 1017.6
20260831221918 87 169 2.0 4.0 0.00 0.07 0.01 76 1017.5
20260831221422 86 169 2.0 3.0 0.00 0.07 0.01 77 1017.4
20260831220919 86 169 2.0 3.0 0.00 0.07 0.01 78 1017.4
20260831220415 86 169 2.0 3.0 0.00 0.07 0.01 77 1017.5
20260831215918 86 169 1.0 3.0 0.00 0.08 0.01 77 1017.6
20260831215414 86 169 0.0 3.0 0.00 0.08 0.01 76 1017.6
20260831214914 87 169 1.0 3.0 0.00 0.09 0.01 76 1017.6
20260831214413 87 169 1.0 3.0 0.00 0.09 0.01 75 1017.6
20260831213912 87 169 2.0 5.0 0.00 0.09 0.01 74 1017.6
20260831213414 88 169 2.0 6.0 0.00 0.09 0.01 73 1017.6
20260831212901 89 178 2.0 6.0 0.00 0.09 0.01 71 1017.6
20260831212402 90 142 3.0 9.0 0.00 0.09 0.01 69 1017.6
20260831211901 91 98 3.0 9.0 0.00 0.10 0.01 68 1017.6
20260831211401 91 77 3.0 7.0 0.00 0.10 0.01 66 1017.6
20260831210902 90 16 3.0 10.0 0.00 0.10 0.01 68 1017.5
20260831210401 90 56 3.0 10.0 0.00 0.10 0.01 65 1017.5
20260831205901 91 14 2.0 6.0 0.00 0.10 0.01 69 1017.4
20260831205401 89 21 0.0 3.0 0.00 0.10 0.01 72 1017.4
20260831204902 89 21 0.0 0.0 0.00 0.10 0.01 73 1017.4
20260831204402 87 21 0.0 0.0 0.00 0.10 0.01 74 1017.3
20260831203901 87 21 0.0 1.0 0.00 0.10 0.01 76 1017.4
20260831203403 87 21 1.0 3.0 0.00 0.10 0.01 76 1017.4
20260831202900 87 21 1.0 3.0 0.00 0.10 0.01 74 1017.5
20260831202359 88 21 2.0 4.0 0.00 0.10 0.01 73 1017.6
20260831201902 88 21 2.0 4.0 0.00 0.10 0.01 68 1017.6
20260831200900 89 21 4.0 6.0 0.00 0.10 0.01 65 1017.5
20260831200407 90 19 4.0 10.0 0.00 0.10 0.01 63 1017.7
20260831195909 91 15 3.0 10.0 0.00 0.10 0.01 62 1017.7
20260831195403 92 295 1.0 7.0 0.00 0.10 0.01 60 1017.6
20260831194900 92 56 1.0 5.0 0.00 0.10 0.01 60 1017.6
20260831194356 89 56 2.0 5.0 0.00 0.10 0.01 70 1017.7
20260831193355 89 56 2.0 5.0 0.00 0.10 0.01 65 1017.9
20260831192855 89 56 2.0 5.0 0.00 0.10 0.01 65 1017.9
20260831192355 89 56 2.0 5.0 0.00 0.10 0.01 66 1018.0
20260831191852 89 56 3.0 9.0 0.00 0.10 0.01 65 1018.1
20260831190852 90 19 6.0 11.0 0.00 0.10 0.01 64 1018.1
20260831190349 90 342 5.0 11.0 0.00 0.10 0.01 63 1018.1
20260831185849 91 65 4.0 9.0 0.00 0.10 0.01 64 1018.1
20260831184848 90 50 4.0 7.0 0.00 0.10 0.01 64 1018.4
20260831184349 89 29 3.0 9.0 0.00 0.10 0.01 66 1018.5
20260831183847 90 40 3.0 9.0 0.00 0.10 0.01 63 1018.5
20260831183348 91 53 3.0 8.0 0.00 0.10 0.01 63 1018.7
20260831182849 90 356 4.0 9.0 0.00 0.10 0.01 65 1018.7
20260831182348 89 356 5.0 9.0 0.00 0.10 0.01 66 1018.8
20260831181352 91 16 3.0 7.0 0.00 0.10 0.01 63 1018.9
20260831180850 90 98 3.0 6.0 0.00 0.10 0.01 65 1019.0
20260831180348 89 73 2.0 6.0 0.00 0.10 0.01 67 1019.0
20260831175846 88 63 2.0 8.0 0.00 0.10 0.01 68 1019.0
20260831175343 88 63 4.0 8.0 0.00 0.10 0.01 69 1019.2
20260831174842 88 60 5.0 11.0 0.00 0.10 0.01 71 1019.2
20260831174340 89 60 4.0 11.0 0.00 0.10 0.01 67 1019.2
20260831173337 89 0 3.0 7.0 0.00 0.10 0.01 68 1019.5
20260831172835 89 46 2.0 6.0 0.00 0.10 0.01 68 1019.5
20260831172332 88 54 3.0 12.0 0.00 0.10 0.01 70 1019.6
20260831171330 87 1 2.0 9.0 0.00 0.10 0.01 70 1019.7
20260831170830 88 309 2.0 5.0 0.00 0.10 0.01 73 1019.8
20260831170325 87 18 2.0 8.0 0.00 0.10 0.01 75 1019.8
20260831165828 87 18 4.0 9.0 0.00 0.10 0.01 73 1019.9
20260831165326 87 73 4.0 9.0 0.00 0.10 0.01 72 1019.8
20260831164824 86 356 4.0 9.0 0.00 0.10 0.01 74 1019.9